ECMWFFLT1_700_temp_060.txt.gz
Temp
15 15 14 14 14 14 14 14 14 14 14 14 14 13 13 13 13 13 13 14 13 13 13 13 13 13 12 12 12 12 12 12 12 12 12 12 12 12 12 12 12 12 11 11 11 11 11 11 11 11 11 11 11 11 11 11 11 11 11 11 11 11 11
15 15 15 14 14 14 14 14 14 14 14 14 14 13 13 13 13 13 14 14 14 13 13 13 13 13 13 13 12 12 12 12 12 12 12 12 12 12 12 12 12 12 12 12 11 11 11 11 11 11 11 11 11 11 11 11 11 11 11 12 12 12 12
15 15 15 15 15 15 15 15 15 15 14 15 14 14 14 14 13 13 14 14 14 14 13 13 13 13 13 13 13 13 13 12 12 12 12 12 12 12 12 12 12 12 12 12 12 12 11 11 11 11 11 11 11 11 11 11 11 11 11 11 12 12 12
16 16 15 15 15 15 15 15 15 15 15 15 15 14 14 15 14 13 14 14 15 14 14 13 13 13 13 13 13 13 13 13 13 12 12 12 12 12 12 12 12 12 12 12 12 12 12 12 11 11 11 11 11 11 11 11 11 11 11 11 11 12 12
16 15 15 15 16 15 15 15 15 15 15 15 15 14 14 14 14 13 13 14 15 14 14 14 13 13 13 13 13 13 13 13 13 13 12 12 12 12 12 12 12 12 12 12 12 12 12 12 12 11 11 11 11 11 11 11 11 11 11 11 11 11 12
16 15 15 15 15 15 15 15 15 15 15 15 15 14 14 14 13 12 12 14 14 14 14 14 14 14 14 13 13 13 13 13 13 13 13 12 12 12 12 12 12 12 12 12 12 12 12 12 12 12 11 11 11 11 11 11 11 11 11 11 11 11 12
17 16 16 15 15 15 15 15 15 15 15 15 15 14 14 14 14 13 12 13 14 14 14 14 14 14 14 14 13 13 13 13 13 13 13 13 12 12 12 12 12 12 12 12 12 12 12 12 12 12 12 11 11 11 11 11 11 11 11 11 11 11 12
17 17 16 16 16 15 15 15 15 15 15 15 15 15 15 14 14 14 12 13 13 14 15 15 15 15 14 14 14 13 13 13 13 13 13 13 13 13 12 12 12 12 12 12 12 12 12 12 12 12 12 12 11 11 11 11 11 11 11 11 11 11 12
17 17 17 16 16 16 15 15 15 15 15 15 15 15 15 14 14 14 14 13 13 14 15 15 15 15 15 15 14 14 14 13 13 13 13 13 13 13 13 12 12 12 12 12 12 12 12 13 13 12 12 12 12 12 12 12 11 11 12 11 11 11 12
17 17 17 16 16 16 15 15 15 15 15 15 15 15 15 15 15 15 14 14 13 14 14 15 15 15 15 15 15 14 14 14 13 13 13 13 13 13 13 13 12 12 12 12 12 13 13 13 13 12 12 12 12 12 12 12 12 11 12 12 11 12 12
18 17 17 16 16 16 15 15 15 15 15 15 15 16 16 15 15 15 15 14 14 14 14 15 15 15 15 15 15 15 14 14 14 14 13 13 13 13 13 13 13 13 12 12 12 13 13 13 13 12 12 13 13 12 12 12 12 12 12 12 12 12 12
18 18 17 17 16 16 16 15 15 15 15 15 15 16 16 16 16 16 15 15 14 14 14 15 15 15 15 15 15 15 15 15 14 14 14 14 13 13 13 13 13 13 13 13 12 13 13 13 13 13 13 13 13 13 13 12 12 12 12 12 12 12 12
18 18 17 17 17 16 16 16 15 15 16 15 16 16 16 16 16 16 16 15 15 14 14 15 15 15 16 15 15 15 15 15 15 15 15 14 14 14 13 13 13 13 13 13 13 13 13 13 13 13 13 13 13 13 13 13 13 13 12 12 12 12 12
17 17 17 16 16 16 16 16 16 16 16 16 16 16 16 16 16 16 16 16 15 14 14 15 15 15 16 16 15 15 15 15 15 15 15 14 14 14 14 13 13 13 13 13 13 13 13 13 13 13 13 13 13 13 13 13 13 13 13 12 12 13 13
14 15 15 15 16 15 15 15 15 15 15 15 16 16 16 16 16 16 16 16 15 15 15 15 16 16 16 16 16 16 15 15 15 15 15 15 14 14 14 14 14 14 14 13 13 13 13 13 13 13 13 13 13 13 13 13 13 13 13 13 13 13 13
12 13 13 14 15 15 14 14 15 15 15 15 15 15 16 16 16 16 16 16 16 15 15 16 16 16 16 16 16 16 15 15 15 15 15 15 15 14 14 14 14 14 14 14 14 13 13 13 13 14 13 13 13 13 13 14 14 14 13 13 13 13 13
11 11 12 13 14 14 14 14 14 14 14 14 14 14 14 15 15 16 16 16 16 15 15 16 16 16 17 17 16 16 16 15 15 15 15 15 15 15 14 14 14 14 14 14 14 14 13 13 13 14 14 13 13 13 13 14 14 14 14 13 13 13 13
10 11 11 12 13 13 14 14 14 13 13 13 13 12 12 13 13 14 15 15 16 16 15 16 16 17 17 17 16 16 16 16 15 15 15 15 15 15 14 14 14 14 14 14 14 14 13 13 13 13 14 14 13 13 13 14 14 14 14 13 13 13 13
11 11 12 12 12 12 13 13 13 13 13 13 12 12 12 12 12 12 13 14 15 15 15 15 16 17 17 17 17 16 16 16 16 15 15 15 15 15 15 14 14 14 14 14 14 14 14 14 13 13 14 14 13 13 13 13 14 14 14 14 13 13 13
11 12 12 12 12 12 12 12 12 13 13 13 13 12 12 12 12 12 12 13 13 13 13 14 15 16 17 17 17 17 16 16 16 16 16 15 15 15 15 15 14 14 14 14 14 14 14 14 14 13 13 14 14 13 13 13 13 14 14 14 13 13 13
11 12 12 12 12 12 12 12 12 12 12 12 12 12 13 13 13 12 12 12 12 12 13 13 14 15 17 17 17 17 17 16 16 16 16 15 15 15 15 15 15 15 14 14 14 14 14 14 14 14 13 14 14 14 14 13 14 14 14 14 13 13 13
11 11 12 12 12 12 12 12 13 13 13 13 12 12 13 13 12 12 12 13 13 13 13 13 13 14 16 17 17 17 17 17 16 16 16 16 15 15 15 15 15 15 15 15 14 14 14 14 14 14 14 14 14 14 14 14 14 14 14 14 13 13 12
11 11 12 12 12 12 12 12 13 13 13 13 13 12 13 13 13 12 12 13 14 15 15 14 13 14 16 17 17 17 17 17 16 16 16 16 16 15 15 15 15 15 15 15 15 14 14 14 14 14 14 14 14 14 14 14 14 14 14 13 13 13 12
10 11 12 12 12 12 12 13 13 13 13 13 13 13 13 13 13 13 12 12 14 15 15 15 15 15 16 17 17 17 17 17 17 16 16 16 16 16 15 15 15 15 15 15 15 15 15 15 14 14 14 14 14 14 14 14 14 14 13 13 13 13 13
10 11 11 12 12 12 13 13 13 13 13 13 13 13 13 13 14 14 13 13 14 15 15 15 16 16 17 17 17 17 17 17 17 16 16 16 16 16 16 15 15 15 15 15 15 15 15 15 14 14 14 14 14 14 14 14 14 14 14 13 13 13 13
10 10 11 11 12 12 12 13 13 13 13 13 14 14 13 13 14 14 14 14 14 15 16 16 17 17 17 17 17 17 17 17 17 17 16 16 16 16 16 15 15 15 15 15 15 15 15 15 14 14 14 14 14 14 14 14 14 14 14 14 13 13 13
9 10 11 11 11 12 12 12 13 13 14 14 14 14 14 14 14 14 15 15 15 16 17 17 17 17 17 17 17 17 17 17 17 17 16 16 16 16 16 15 15 15 15 15 15 14 14 14 14 14 14 14 14 14 14 14 14 14 14 14 14 13 13
9 10 10 11 11 12 12 12 13 13 14 14 14 14 14 14 15 15 15 15 16 17 17 17 17 17 17 17 17 17 17 17 17 17 16 16 16 16 16 16 15 15 15 15 14 14 14 14 14 14 14 14 14 14 14 14 14 14 14 14 14 14 13
9 10 10 11 11 11 12 12 13 13 14 14 14 14 15 15 15 15 16 16 17 17 17 17 17 18 17 17 18 17 17 17 17 17 17 16 16 16 16 16 15 15 15 15 14 14 14 14 14 14 14 14 14 14 15 14 14 14 14 14 14 14 14
9 9 10 10 11 11 12 12 13 13 14 14 14 15 15 15 15 16 16 16 17 17 16 15 16 17 17 18 18 18 18 17 17 17 17 17 16 16 16 16 16 15 15 15 14 14 14 14 14 14 14 14 14 14 14 14 14 14 14 14 14 14 14
9 9 10 10 11 11 12 12 13 13 13 14 14 15 15 15 15 16 16 16 17 17 15 14 16 17 17 17 18 18 18 17 17 17 17 17 16 16 16 16 16 15 15 15 14 14 14 14 14 14 14 14 14 14 14 14 14 15 14 14 14 14 14
9 9 10 10 11 11 11 12 12 13 13 14 15 15 15 15 15 16 16 16 17 16 14 13 15 17 18 18 18 18 17 17 17 17 17 16 16 16 16 16 16 15 15 15 14 14 14 14 14 14 14 14 14 14 14 14 14 15 15 14 14 15 15
9 9 10 10 11 11 11 12 12 13 13 14 14 15 14 14 15 16 16 16 16 15 13 13 14 16 17 18 18 17 17 17 17 17 17 16 16 16 16 16 16 15 15 15 14 14 14 14 14 14 14 14 14 14 14 14 14 15 15 15 15 15 15
9 9 10 10 11 11 11 12 12 12 13 13 14 14 14 14 15 16 16 16 16 15 13 13 14 16 17 17 17 17 17 17 18 18 17 17 16 16 16 16 16 16 16 15 14 14 14 14 14 14 14 14 14 14 14 14 14 15 15 15 15 15 14
8 8 8 9 10 10 11 12 12 13 13 13 14 13 13 13 14 15 15 15 14 14 13 12 14 15 16 16 16 16 16 17 17 17 17 16 16 16 16 16 16 16 16 15 15 14 14 14 14 15 15 15 15 14 14 14 14 15 15 14 14 14 14
6 7 7 8 8 9 10 11 12 13 12 13 13 13 13 13 13 13 14 14 13 12 12 12 13 14 15 16 16 16 16 17 17 17 16 16 16 16 16 16 16 16 16 16 15 15 15 15 15 15 15 15 15 14 14 14 14 14 14 14 14 14 14
5 6 7 8 8 8 8 9 11 12 12 12 12 12 13 13 13 13 13 13 13 12 12 12 12 13 14 15 15 15 16 16 16 16 16 16 16 16 16 16 16 16 16 16 15 15 15 15 15 15 15 15 14 14 14 14 14 14 14 14 14 14 14
5 6 7 8 8 8 8 8 9 11 12 12 12 12 12 12 12 12 13 13 13 12 12 12 13 13 14 15 15 15 16 16 16 16 16 16 16 16 16 16 16 16 16 16 15 15 15 15 15 15 14 14 14 14 14 14 14 14 14 14 14 14 14

ECMWFFLT1_700_temp_063.txt.gz
Temp
16 16 15 15 15 15 14 14 14 14 13 13 13 13 13 13 13 13 13 13 13 13 12 12 12 12 12 12 12 12 12 12 12 12 12 12 11 11 11 11 11 11 11 11 11 11 11 11 11 11 11 11 11 11 11 11 12 12 11 11 11 11 11
16 16 16 15 15 15 15 14 14 14 14 14 14 14 13 13 14 14 14 13 13 13 13 13 12 12 12 12 12 12 12 12 12 12 12 12 12 12 11 12 12 11 11 11 11 11 11 11 11 11 11 11 11 11 11 11 12 12 12 11 11 11 11
16 17 16 16 15 15 15 15 14 14 14 14 14 14 13 13 14 14 14 14 13 13 13 13 13 13 12 12 12 12 12 12 12 12 12 12 12 12 12 12 12 12 12 12 11 11 11 11 11 11 11 11 11 11 11 11 11 11 11 12 12 11 11
17 17 17 16 16 16 15 15 15 14 14 14 14 14 14 14 14 14 14 14 14 13 13 13 13 13 12 12 12 12 12 12 12 12 12 12 12 12 12 12 12 12 12 12 12 12 12 11 11 11 11 11 11 11 11 11 11 11 11 11 12 12 12
16 17 17 16 16 16 15 15 15 14 14 14 14 14 14 14 14 14 14 14 14 14 13 13 13 13 12 12 12 12 12 12 12 12 12 12 12 12 12 12 12 12 12 12 12 12 12 12 12 11 11 11 11 11 11 12 12 11 11 11 11 11 12
16 16 16 16 16 16 16 15 15 15 14 15 15 14 14 14 14 14 14 15 15 14 14 13 13 13 13 12 12 12 12 12 12 12 12 12 12 12 12 12 12 12 12 12 12 12 12 12 12 12 11 11 11 11 11 12 12 12 12 12 11 11 11
16 16 16 16 16 16 16 15 15 15 14 15 15 14 14 14 14 14 15 15 15 15 14 14 13 13 13 13 12 12 12 12 12 12 12 12 12 12 12 12 12 12 12 12 12 12 12 12 12 12 12 12 11 11 11 11 12 12 12 12 12 12 11
17 16 17 17 16 16 16 16 15 15 15 15 15 14 14 14 14 14 15 15 15 15 15 14 14 14 14 13 13 13 13 13 12 12 12 12 12 12 12 12 12 12 12 12 12 12 12 12 12 12 12 12 12 12 11 12 12 12 12 12 12 12 12
17 17 17 17 16 16 16 16 16 15 15 15 15 15 14 14 15 15 15 15 15 15 15 14 14 14 14 14 14 13 13 13 13 13 13 12 12 12 12 13 13 12 12 12 12 12 12 13 12 12 12 12 12 12 12 12 12 12 12 12 12 12 12
17 17 17 17 16 16 16 16 16 15 15 15 15 15 15 15 15 15 15 15 15 15 15 14 14 14 15 15 14 14 13 13 13 13 13 13 13 13 13 13 13 13 12 12 12 12 12 13 13 13 12 12 12 12 12 12 12 12 12 12 12 12 12
15 16 17 17 16 16 16 16 16 16 15 15 15 15 15 15 15 15 15 15 15 15 15 15 14 15 15 15 15 14 14 13 13 13 13 13 13 13 13 13 13 13 13 12 12 13 12 13 13 13 13 12 12 12 12 12 12 12 12 12 12 12 12
15 15 16 17 17 16 16 16 16 16 16 15 15 15 15 15 15 15 15 15 15 15 15 15 15 15 15 15 15 15 14 14 14 14 14 14 14 13 13 13 13 13 13 13 13 13 13 13 13 13 13 13 13 13 13 13 12 12 12 12 12 12 12
16 15 15 15 16 16 16 16 16 16 16 16 15 15 15 15 15 15 15 15 15 15 15 15 15 15 15 15 15 15 15 14 14 14 14 14 14 14 13 13 13 13 13 13 13 13 13 13 13 13 13 13 13 13 13 13 13 13 12 12 13 13 13
14 14 14 13 14 14 15 15 16 16 16 16 16 15 15 15 15 15 15 15 15 15 15 15 15 15 15 15 15 15 15 15 15 14 14 14 14 14 14 14 13 13 13 13 13 13 13 13 13 13 13 13 13 13 13 13 14 13 13 13 13 13 13
12 13 13 13 13 13 13 13 13 14 15 15 15 15 15 15 15 16 15 15 15 15 15 14 14 15 15 15 15 15 15 15 15 15 14 14 14 14 14 14 14 14 14 13 13 13 13 13 13 13 13 13 13 13 13 14 14 14 13 13 13 13 13
11 12 12 13 13 12 12 12 12 13 13 14 14 14 14 15 15 15 15 14 14 14 14 14 14 14 15 15 15 15 15 15 15 15 15 14 14 14 14 14 14 14 14 14 13 13 13 13 13 13 13 13 13 13 13 14 14 14 14 13 13 13 13
11 11 11 11 11 11 11 12 12 12 12 13 13 13 14 14 14 14 14 14 13 13 13 13 14 14 14 15 15 15 15 15 15 15 15 15 15 15 15 15 14 14 14 14 14 14 13 14 14 14 13 13 13 13 14 14 14 14 14 13 13 13 13
11 11 11 11 11 10 10 11 11 12 11 12 12 12 12 13 14 14 15 15 14 13 12 12 12 13 13 14 15 15 15 15 15 15 15 15 15 15 15 15 15 15 15 15 14 14 14 14 14 14 14 13 13 13 14 14 14 14 14 13 13 13 13
11 11 11 11 11 10 10 11 11 11 11 11 12 12 12 12 13 14 14 14 14 14 13 12 11 11 12 13 14 15 15 15 15 15 15 15 15 15 15 15 15 15 15 15 15 14 14 14 14 14 14 14 13 13 13 14 14 14 14 13 13 13 13
10 11 11 11 11 11 11 11 11 11 10 11 11 12 12 12 12 13 13 12 12 13 14 14 13 12 11 11 12 14 15 15 15 15 15 15 15 15 15 15 15 15 15 15 15 14 14 14 14 14 14 14 14 13 13 13 14 14 14 13 13 13 13
10 11 11 11 11 11 11 11 11 11 11 11 11 11 12 12 12 12 12 12 12 13 13 14 14 14 13 13 12 13 14 15 15 15 15 15 15 15 15 15 15 14 14 14 15 15 14 14 14 14 14 14 14 14 13 13 13 14 14 13 13 13 13
10 11 11 11 11 11 11 11 11 11 11 11 11 11 11 12 12 13 12 12 13 14 13 13 13 14 15 15 14 14 15 15 15 15 15 15 15 15 15 15 15 14 14 14 14 14 14 14 14 14 14 14 14 14 14 14 13 13 13 13 13 13 13
10 10 10 11 11 11 11 11 12 12 12 12 11 11 11 11 12 12 12 12 13 13 13 13 13 14 14 15 15 15 16 15 15 15 15 15 15 15 15 15 15 14 14 14 14 14 14 14 14 14 14 14 14 15 15 14 14 13 13 13 13 13 13
9 9 10 10 11 11 11 11 12 12 12 12 12 12 12 12 12 12 12 12 13 13 13 13 13 14 14 15 15 16 16 16 16 15 15 15 15 15 15 15 15 15 14 14 14 15 15 14 14 14 14 14 14 15 15 15 14 14 14 14 13 13 13
8 9 9 10 10 11 11 11 12 12 12 12 12 13 13 13 12 12 12 12 12 13 14 14 13 14 14 15 15 15 16 16 16 16 15 15 15 15 15 15 15 15 15 15 14 14 14 14 14 14 14 14 14 14 14 15 15 15 14 14 14 13 13
8 8 8 8 9 10 11 11 12 12 12 12 13 13 13 13 13 13 13 13 12 12 13 14 14 14 14 14 14 14 15 16 16 16 16 16 15 15 15 15 15 15 15 15 14 14 14 15 15 15 14 14 14 14 14 14 15 15 15 14 14 14 13
8 9 9 9 9 9 10 11 11 12 12 12 12 13 13 13 13 13 13 13 13 13 13 14 14 14 13 13 13 14 15 16 17 17 17 16 15 15 15 15 15 15 15 15 15 14 14 15 15 15 15 14 14 14 14 14 14 14 14 14 14 14 14
8 8 9 9 9 9 9 10 10 11 12 12 12 13 13 13 13 13 13 13 13 13 14 14 14 14 13 13 13 14 15 16 17 17 17 16 16 15 15 15 15 15 15 15 15 14 15 15 15 15 15 15 14 14 14 14 14 14 14 14 14 14 14
8 8 8 8 8 8 9 10 10 11 11 12 12 12 13 13 13 13 14 14 14 14 14 14 14 14 14 14 13 14 15 16 16 17 17 17 16 16 16 15 15 15 15 15 15 14 14 15 15 15 15 15 15 15 14 14 14 14 14 14 14 14 14
8 8 8 8 8 8 9 9 10 10 11 12 12 12 12 13 13 13 14 14 14 14 15 15 14 14 15 15 14 14 15 16 16 16 17 17 17 16 16 16 15 15 15 15 15 15 15 15 15 15 15 15 15 14 14 14 14 14 14 14 14 14 14
7 8 8 8 8 8 9 9 10 10 11 12 12 12 12 13 13 13 14 14 14 15 15 15 15 15 15 16 16 16 16 16 16 16 17 17 17 17 16 16 16 15 15 15 15 15 15 15 15 15 15 15 15 14 14 14 14 14 14 14 14 14 14
7 7 7 8 8 9 9 9 10 10 11 12 12 12 12 12 13 13 14 14 15 15 15 16 16 16 16 16 17 16 16 16 17 17 17 17 17 17 17 16 16 16 16 15 15 15 15 15 15 15 15 15 15 14 14 14 14 14 14 14 14 14 14
6 6 7 7 8 8 9 9 10 10 11 12 12 12 12 12 13 13 14 14 14 15 15 16 16 16 17 17 17 17 17 17 17 17 17 17 17 17 17 17 16 16 16 16 16 16 15 15 15 15 15 15 15 14 14 14 14 14 14 14 14 14 14
6 6 6 7 8 8 9 9 10 10 11 12 12 12 12 13 13 13 13 14 14 15 15 16 16 16 17 17 17 17 17 17 18 17 17 17 17 17 17 17 17 17 17 17 16 16 16 15 15 15 15 15 14 14 14 14 14 14 14 14 15 15 14
5 6 6 7 7 8 8 9 10 10 11 12 12 12 12 13 13 13 13 14 14 15 15 15 16 16 16 17 17 17 17 17 17 17 17 17 17 17 17 17 17 17 17 17 16 16 16 15 15 15 15 14 14 14 14 14 14 14 14 14 15 15 14
5 6 6 7 7 7 8 8 9 10 11 12 12 12 13 13 13 13 13 13 14 15 15 15 15 16 16 16 16 17 17 17 17 17 17 17 17 17 17 17 17 17 17 17 16 16 15 15 15 15 14 14 14 14 14 14 14 14 14 14 14 14 14
5 6 6 6 6 7 7 7 9 10 11 12 12 12 13 13 13 13 13 13 13 14 15 15 15 15 15 16 16 16 16 16 15 15 16 16 16 16 16 17 17 17 17 17 16 16 15 15 15 14 14 13 13 13 13 13 13 13 14 14 14 14 14
4 5 6 6 6 6 6 6 7 9 10 12 12 12 13 13 13 13 13 13 13 14 15 14 14 15 14 14 14 14 14 13 13 13 13 13 13 14 15 16 17 17 17 17 16 16 15 15 15 14 14 13 13 13 13 13 13 13 14 14 14 14 14

ECMWFFLT1_700_temp_069.txt.gz
Temp
14 14 14 14 13 13 12 12 12 13 13 13 13 13 13 13 13 13 13 12 12 12 12 12 12 12 12 12 12 11 11 11 11 11 11 11 10 10 10 10 11 10 11 11 11 10 10 10 10 10 10 10 10 10 10 10 11 10 10 10 10 10 10
14 14 14 14 14 14 13 12 12 12 13 13 13 13 13 13 13 13 13 13 12 12 12 12 12 12 12 12 12 12 11 11 11 11 11 11 11 10 11 11 11 11 11 11 10 10 10 10 10 10 10 10 10 10 11 11 11 11 11 11 10 10 10
15 15 15 15 15 14 14 13 12 12 13 13 13 13 13 14 14 13 13 13 12 12 12 12 12 12 12 12 12 12 12 11 11 11 11 11 11 11 11 11 11 11 11 10 10 10 10 10 10 10 10 10 10 10 10 11 11 11 11 11 11 10 10
16 16 15 15 15 14 14 13 13 13 13 13 13 13 13 14 14 13 13 13 13 12 12 12 12 12 12 12 12 12 12 12 12 11 11 11 11 11 11 11 11 10 11 11 10 10 10 11 11 10 11 10 10 11 10 10 11 11 11 11 11 11 10
16 16 15 15 15 14 14 14 14 13 13 14 14 13 13 13 13 13 13 13 13 12 12 12 12 12 12 12 12 12 12 12 12 12 11 11 11 11 11 11 11 11 10 11 11 11 11 11 11 11 10 11 10 11 11 11 10 11 11 11 11 11 11
16 16 16 16 15 15 15 15 14 14 14 14 14 14 13 13 13 13 13 13 13 12 12 12 12 12 12 12 12 12 12 12 12 12 12 11 11 11 11 11 11 11 11 10 11 11 11 11 11 11 10 10 10 10 11 11 10 10 11 11 11 11 11
16 17 17 16 16 15 15 15 15 14 14 14 14 13 13 13 13 13 13 13 13 13 12 12 12 12 12 12 12 12 12 12 12 12 12 12 11 11 11 11 11 11 11 11 11 10 11 11 11 11 11 11 11 11 11 11 11 11 11 11 11 11 11
16 16 16 16 16 16 16 15 15 15 14 14 14 13 13 13 13 13 13 13 13 13 13 12 12 12 12 12 12 12 12 12 11 12 12 12 12 11 11 11 11 11 11 11 11 11 11 11 11 11 11 11 11 11 11 11 11 11 11 11 11 11 11
15 15 15 15 15 15 15 15 15 15 14 14 14 13 13 13 13 13 13 13 13 13 13 13 12 12 12 12 12 12 12 12 11 11 11 12 12 12 11 11 11 11 11 11 11 11 11 11 11 11 11 11 11 11 11 11 11 11 11 11 11 11 11
15 14 14 13 13 13 13 12 13 13 14 14 14 14 13 13 13 13 13 13 13 13 13 13 12 12 12 12 12 12 12 12 12 11 11 11 12 12 12 11 11 11 11 11 11 11 11 11 11 11 11 11 11 11 11 11 11 11 11 11 11 11 11
15 14 14 13 12 12 12 11 11 11 12 13 13 13 13 13 13 13 13 13 13 13 13 13 12 12 12 12 12 12 12 12 12 12 12 11 12 12 12 12 11 11 11 11 11 11 11 11 11 11 11 11 11 11 11 11 11 11 11 11 11 11 11
13 13 13 13 12 12 12 11 11 11 11 12 12 12 12 12 13 13 13 13 13 13 13 13 13 12 12 12 12 12 12 12 12 12 12 12 12 12 12 12 12 12 11 11 11 11 11 11 11 11 11 11 11 11 11 11 11 11 11 11 11 11 11
11 11 12 12 12 12 12 12 12 12 12 12 12 12 12 12 12 12 12 12 12 12 13 13 12 12 12 12 12 12 12 12 12 12 12 12 12 12 12 12 12 12 12 12 11 11 11 11 12 11 11 11 11 11 11 11 11 11 11 11 11 11 11
9 10 10 11 11 11 11 11 12 12 12 12 11 11 11 11 11 11 12 12 12 12 12 12 12 12 12 12 12 12 12 12 12 12 12 12 12 12 12 12 12 12 12 12 12 12 11 11 11 11 11 11 11 11 11 11 11 11 11 11 11 11 11
8 9 10 10 10 10 11 11 11 11 12 12 12 11 11 11 11 11 11 11 11 11 11 11 11 11 12 12 12 12 12 12 12 12 12 12 12 12 12 12 12 11 11 11 12 12 12 11 11 11 11 11 11 11 11 11 11 11 11 11 11 11 11
7 8 9 9 10 10 10 10 11 11 11 12 12 11 11 11 11 11 11 11 11 11 11 11 11 11 11 11 12 12 12 12 12 12 12 12 12 12 12 12 12 12 11 11 12 12 11 11 11 11 11 11 11 11 11 11 11 11 11 11 11 11 11
7 7 8 8 9 9 10 10 10 10 11 11 11 11 11 11 11 11 11 11 11 11 11 11 12 11 11 11 11 11 11 11 12 12 12 12 12 12 12 12 12 12 12 12 12 12 11 11 11 11 11 11 11 11 11 11 11 11 11 11 11 11 11
7 7 7 7 8 9 9 9 10 10 10 10 10 11 11 11 11 11 11 11 11 11 11 11 11 12 12 11 11 10 11 11 11 11 11 11 12 12 12 12 12 12 12 12 12 12 12 12 12 12 12 12 12 12 12 12 12 11 11 11 11 11 11
7 7 7 7 7 7 8 9 9 10 10 10 10 10 11 11 11 11 11 11 11 11 11 11 11 11 11 12 12 11 11 11 11 11 11 11 11 12 12 12 12 12 12 12 12 12 12 12 12 12 12 12 12 12 12 12 12 11 11 11 11 11 11
7 7 7 7 7 7 7 7 8 9 9 10 10 10 10 10 11 11 11 11 11 11 11 11 11 11 11 12 12 12 12 11 11 11 11 11 11 11 12 12 12 12 12 12 12 12 12 12 12 12 12 12 12 12 12 12 12 12 11 11 11 11 11
7 7 7 7 7 7 7 7 7 8 8 9 9 9 10 10 10 11 11 11 11 11 11 11 11 12 12 12 12 12 13 12 12 11 11 11 11 12 12 12 12 12 12 12 12 12 12 12 12 12 12 12 12 12 12 12 12 12 12 11 11 11 11
7 7 8 7 7 7 7 7 7 7 7 8 8 8 9 10 10 11 11 11 11 11 11 11 11 12 12 12 13 12 12 12 13 12 12 12 12 12 12 12 12 12 12 12 12 12 12 12 12 12 12 12 12 12 12 13 12 12 12 12 11 11 11
6 7 7 8 7 7 7 7 7 7 7 7 7 8 9 9 10 10 10 10 11 11 11 12 12 12 12 12 13 12 12 12 12 12 13 13 13 12 12 12 12 12 12 12 12 12 12 13 13 13 13 12 12 12 13 13 13 12 12 12 11 11 11
6 6 7 7 7 7 7 7 8 8 7 7 7 7 8 9 9 10 10 10 11 11 11 12 12 12 12 12 13 13 12 12 12 12 12 13 13 13 12 12 12 12 12 12 12 12 12 13 13 13 13 13 13 13 13 13 13 12 12 12 12 11 11
5 5 6 6 6 7 7 7 7 8 8 7 7 7 8 8 8 9 10 10 10 11 11 11 12 12 12 13 13 13 13 12 12 12 13 13 13 12 12 12 12 12 12 12 12 12 12 12 13 13 13 13 13 13 13 13 13 13 12 12 12 12 12
4 4 5 5 5 6 7 7 7 8 8 8 8 8 8 8 8 8 9 10 10 10 11 11 12 12 12 13 13 13 13 12 13 13 13 14 13 12 12 12 12 12 12 12 12 12 12 12 13 13 13 13 13 13 13 13 13 13 13 12 12 12 12
4 4 4 5 5 5 6 7 7 7 8 8 8 8 8 8 8 8 8 9 9 10 10 11 12 12 12 12 13 13 13 12 12 13 13 14 14 13 12 12 12 13 13 13 13 12 12 13 13 13 13 13 13 13 13 13 13 13 13 13 13 12 12
4 4 4 4 5 5 6 6 6 7 7 8 8 8 8 8 9 9 8 9 9 9 9 10 11 12 12 12 12 13 13 13 12 12 12 13 14 13 13 13 13 13 13 13 13 13 13 13 13 13 14 14 14 13 13 13 13 13 13 13 13 13 12
3 4 4 4 4 5 6 6 6 6 7 7 8 8 9 9 9 9 9 9 9 9 9 9 10 11 12 12 12 12 13 12 12 12 12 12 13 13 13 13 14 14 13 13 13 13 13 13 13 14 14 14 14 14 14 13 13 13 13 13 13 13 12
3 3 4 4 4 4 5 6 6 6 6 7 7 8 8 9 9 9 9 9 9 9 9 9 10 11 11 12 12 12 12 12 11 11 11 12 12 12 12 13 13 14 14 14 13 13 13 13 13 14 14 14 14 14 14 14 14 13 13 13 13 13 13
2 3 3 4 4 4 4 5 6 6 6 6 7 7 8 8 9 9 9 9 9 9 10 10 10 11 11 12 12 12 12 12 12 11 11 12 12 12 12 12 12 13 14 14 14 14 14 14 14 14 14 14 14 14 14 14 14 14 14 13 13 13 13
2 2 3 3 4 4 4 5 5 6 7 7 6 7 7 8 8 9 9 10 10 10 10 10 10 11 11 12 12 12 12 12 12 12 12 12 13 13 13 13 12 12 13 14 14 14 14 14 14 14 14 14 14 14 14 14 14 14 14 14 14 13 13
2 2 2 3 3 3 4 4 5 5 6 7 6 6 7 7 8 9 9 10 10 10 10 10 11 11 11 11 12 12 12 12 12 12 12 13 13 13 14 14 13 13 13 13 14 14 14 14 14 14 14 14 14 14 14 14 14 14 14 14 14 14 13
2 2 2 2 3 3 3 4 4 5 5 6 6 6 7 7 8 8 9 9 10 10 10 11 11 11 11 12 12 12 12 12 12 13 13 13 13 13 14 14 14 13 13 14 14 14 14 14 14 14 15 15 14 14 14 14 15 15 15 14 14 14 14
1 2 2 2 2 3 3 3 4 4 5 6 6 7 7 7 7 8 9 9 10 10 10 11 11 11 11 12 12 12 12 12 12 13 13 13 14 14 14 14 14 14 14 14 14 14 14 14 14 15 15 15 14 14 14 14 15 15 15 14 14 14 14
1 1 2 2 2 2 3 3 4 4 5 5 6 7 7 8 8 8 9 9 10 10 10 10 11 11 11 12 12 12 13 13 13 13 13 13 14 14 14 14 14 14 14 14 14 14 14 14 14 15 15 15 15 15 15 15 15 15 14 14 15 14 14
1 1 2 2 2 2 3 3 3 4 4 5 5 6 7 8 8 9 9 9 10 10 10 10 11 11 11 12 12 12 13 13 13 13 13 14 14 14 14 14 15 15 15 15 15 14 14 14 15 15 15 15 15 15 15 15 15 14 14 15 15 15 14
1 1 1 2 2 2 2 2 3 3 4 4 5 6 6 7 8 9 10 10 10 10 10 10 11 11 11 11 12 12 12 13 13 13 13 14 14 14 14 14 14 15 15 15 15 15 14 14 15 15 15 15 15 15 15 15 14 14 14 14 14 14 15

ECMWFFLT1_700_temp_072.txt.gz
Temp
13 13 14 14 14 13 13 13 13 13 12 12 12 12 12 12 12 12 12 12 12 11 11 11 11 11 11 11 11 11 11 11 11 11 11 11 11 11 11 10 10 10 10 10 10 10 10 10 9 9 9 9 9 9 9 9 9 9 9 9 9 9 9
13 13 13 13 14 14 14 13 13 13 13 13 12 12 12 12 12 12 12 12 12 11 11 11 11 11 11 11 11 11 11 11 11 11 11 11 11 11 11 11 10 10 10 10 10 10 10 10 10 9 9 10 10 10 9 9 9 9 9 9 9 9 9
14 14 14 13 14 14 14 14 13 13 13 13 13 13 13 13 12 12 12 12 12 12 11 11 11 11 11 11 11 11 11 11 11 11 11 11 11 11 11 11 11 10 10 10 10 10 10 10 10 10 10 10 10 10 10 9 9 9 10 10 9 10 10
15 15 14 14 14 13 13 13 13 13 13 13 13 13 13 13 12 12 12 12 12 12 12 11 11 11 11 11 11 11 11 11 11 11 11 11 11 10 11 11 11 10 10 10 10 10 10 10 10 10 10 10 10 10 10 10 10 10 10 10 10 10 10
16 15 15 14 14 14 13 13 13 14 14 14 13 13 13 13 12 12 12 12 12 12 11 11 11 11 11 11 11 11 11 11 11 11 11 11 11 11 10 11 11 11 10 10 10 10 10 10 10 10 10 10 10 10 10 10 10 10 10 10 10 10 10
16 16 15 14 14 14 14 14 13 13 14 14 13 13 13 13 12 12 12 12 12 11 11 11 11 11 11 11 11 11 11 11 11 12 11 11 11 11 11 11 10 10 10 10 10 10 10 10 10 10 10 10 10 10 10 10 10 10 10 10 10 10 10
16 16 16 15 14 13 12 12 13 13 13 13 13 13 13 13 12 12 12 12 12 12 11 11 11 11 11 11 11 11 11 11 11 11 11 11 11 11 11 11 11 10 10 10 10 10 10 10 10 10 10 10 10 10 10 10 10 10 10 10 10 10 10
16 16 16 16 15 13 12 11 11 11 11 11 12 12 12 12 12 12 12 12 12 12 12 11 11 11 11 11 11 11 11 11 11 11 11 11 11 11 11 11 11 11 10 10 10 10 10 10 10 10 10 10 10 10 10 10 10 10 10 10 10 10 10
16 16 16 16 16 15 13 12 11 10 10 11 11 11 11 12 12 12 12 12 12 12 12 11 11 11 11 11 11 11 11 11 11 11 11 11 11 11 11 11 11 11 11 11 10 10 10 10 10 10 10 10 10 10 10 10 10 10 10 10 10 10 10
15 15 15 15 15 15 14 13 12 11 11 10 10 11 11 11 11 11 11 11 11 12 12 11 11 11 11 11 11 11 11 11 11 11 11 11 11 11 11 11 11 11 11 11 11 10 10 10 10 10 10 10 10 10 10 10 10 10 10 10 10 10 10
14 14 14 14 14 14 14 13 12 12 12 11 10 10 10 10 11 11 11 11 11 11 11 11 11 11 11 11 11 11 11 11 11 11 11 11 11 11 11 11 11 11 11 11 11 11 10 10 10 10 10 10 10 10 10 10 10 10 10 10 10 10 10
11 11 12 12 12 12 13 12 12 12 12 11 11 11 10 10 10 11 11 11 11 11 11 11 11 11 11 11 11 11 11 11 11 11 11 11 11 11 11 11 11 11 11 11 11 11 11 10 10 10 10 10 10 10 10 10 10 10 10 10 10 10 10
9 9 10 10 10 10 11 11 12 12 12 12 11 11 11 10 10 11 11 11 11 11 11 11 11 11 11 11 11 11 11 11 11 11 11 11 11 11 11 11 11 11 11 11 11 11 11 11 10 10 10 10 10 10 10 10 10 10 10 10 10 11 11
8 8 9 9 9 9 10 10 10 11 11 11 11 11 11 10 10 11 11 11 11 11 11 11 11 11 11 11 11 11 11 11 11 11 11 11 11 11 11 11 11 11 11 11 11 11 11 11 11 10 10 10 10 10 10 10 10 10 10 10 10 10 11
8 8 8 9 9 9 9 9 10 10 10 10 10 10 10 10 11 11 11 11 11 11 10 10 10 10 11 11 11 11 11 11 10 10 10 11 11 11 11 11 11 11 11 11 11 11 11 11 11 11 11 11 11 11 11 11 11 11 11 11 10 10 11
7 7 8 8 9 9 9 9 9 9 9 10 10 10 10 10 10 11 11 11 11 11 11 11 11 11 11 11 11 11 11 11 10 10 10 11 11 11 11 11 11 11 11 11 11 11 11 11 11 11 11 11 11 11 11 11 11 11 11 11 11 10 10
7 7 7 7 8 8 9 9 9 9 9 9 9 9 10 10 10 10 10 11 11 11 11 11 11 11 11 12 11 11 11 11 11 11 11 11 11 11 11 11 11 11 11 11 11 11 11 11 11 11 11 11 11 11 11 11 11 11 11 11 11 11 10
7 7 6 6 6 7 8 9 9 9 9 9 9 9 9 9 9 10 10 10 10 11 11 11 12 12 11 12 12 11 11 11 11 11 11 11 11 12 12 11 11 11 11 11 11 11 11 11 11 11 11 11 11 11 11 11 11 11 11 11 11 11 11
7 7 7 6 6 6 6 7 8 9 9 9 10 10 10 10 10 10 10 10 10 10 11 11 11 11 11 11 11 11 11 11 11 11 11 11 11 11 11 12 12 12 11 11 11 11 11 11 11 11 11 11 11 11 11 11 11 11 11 11 11 11 11
7 7 7 7 6 6 6 6 6 7 8 9 9 9 10 10 10 10 10 10 10 10 11 11 11 11 11 11 11 11 11 11 11 11 11 11 11 11 11 11 12 12 12 12 11 11 11 11 11 11 11 11 11 11 11 11 11 11 11 11 11 11 11
7 7 7 7 7 7 6 6 6 6 7 7 8 8 8 9 9 9 9 10 10 11 11 11 11 11 11 11 11 11 11 11 11 11 11 11 11 11 10 10 11 11 12 12 12 12 11 11 11 11 11 11 11 11 12 12 12 11 11 11 11 11 11
7 7 7 7 7 7 7 7 6 6 6 6 7 7 7 7 8 9 9 10 10 10 11 11 11 11 11 11 11 11 11 11 11 11 12 11 11 11 11 11 10 11 11 11 12 12 12 11 11 11 11 11 11 12 12 12 12 12 11 11 11 11 11
6 7 7 7 8 8 7 7 7 7 6 6 6 7 7 7 7 8 8 9 9 10 10 11 11 11 11 11 11 11 11 11 11 11 11 11 11 11 11 11 11 11 10 10 11 11 11 11 12 12 12 12 12 12 12 12 12 12 12 12 11 11 11
4 5 6 7 7 8 8 8 7 7 7 7 7 7 7 7 7 7 7 8 9 9 10 11 11 11 11 11 11 11 11 11 11 11 11 12 12 12 12 12 11 11 10 10 11 11 11 11 12 12 12 12 12 12 12 12 12 12 12 12 12 12 11
4 4 5 6 6 7 8 8 8 8 7 7 7 7 7 7 7 7 7 7 8 9 10 10 11 11 11 11 12 11 11 11 12 12 12 12 12 12 12 12 12 11 11 11 11 11 11 11 12 12 12 12 12 12 12 12 12 12 12 12 12 12 12
4 4 4 5 5 6 7 8 8 8 8 8 7 7 7 7 7 7 7 7 7 8 9 9 10 10 11 11 11 11 11 12 12 12 12 12 12 12 12 12 12 12 11 11 11 12 11 11 12 12 13 13 13 13 13 13 13 12 12 12 12 12 12
3 4 4 4 5 5 6 7 8 8 8 8 8 7 7 7 7 7 7 7 7 8 8 8 9 10 10 10 11 11 11 11 12 12 12 12 11 11 12 12 12 12 12 12 12 12 12 12 12 13 13 13 13 13 13 13 13 13 13 13 12 12 12
3 3 4 4 4 5 5 6 6 8 8 8 8 8 7 7 7 7 7 7 7 8 8 8 8 9 9 10 10 10 10 10 11 12 11 11 11 11 11 11 11 11 12 12 12 12 12 12 12 13 13 13 13 13 14 13 13 13 13 13 13 13 12
2 3 3 4 4 4 5 5 5 6 7 8 8 7 7 8 7 7 7 7 7 8 8 8 8 8 8 9 10 10 10 10 10 10 10 10 10 11 11 11 11 11 11 12 12 12 12 13 13 13 13 14 14 14 14 14 14 13 13 13 13 13 13
2 2 3 3 3 4 4 5 5 5 6 7 7 8 7 7 7 8 7 7 8 8 8 8 8 8 8 8 9 9 10 10 10 10 9 9 10 11 11 11 11 11 11 11 12 12 13 13 13 14 14 14 14 14 14 14 14 14 14 13 13 13 13
2 2 2 2 3 3 4 4 5 5 5 5 6 7 8 7 7 8 8 8 8 8 8 8 8 9 9 9 8 9 9 9 9 9 9 10 10 10 10 11 11 11 11 11 11 12 13 13 13 14 14 14 14 14 14 14 14 14 14 14 14 13 13
2 1 1 1 2 2 3 4 4 5 5 5 5 6 7 7 7 7 8 8 8 8 8 8 8 9 9 9 9 9 9 9 9 9 9 10 10 10 11 11 11 11 11 11 11 12 13 13 13 13 14 14 14 15 14 14 14 14 14 14 14 14 13
1 2 1 1 1 1 2 3 4 4 5 5 5 5 6 6 7 7 7 7 8 8 8 8 8 9 9 9 9 9 9 9 9 9 10 10 10 11 11 11 11 11 12 12 12 12 13 13 13 13 13 14 14 14 14 14 14 14 14 14 14 14 14
1 1 2 2 1 1 1 2 3 4 4 5 5 5 5 6 6 7 7 7 7 8 8 9 9 9 9 9 9 9 9 9 10 10 10 10 10 11 11 11 11 12 12 12 13 13 13 13 13 13 13 13 14 14 14 14 14 15 15 15 14 14 14
0 1 1 2 2 1 1 1 2 3 3 4 5 5 5 5 6 7 7 7 7 7 8 9 9 9 9 9 9 9 9 10 10 10 10 10 10 11 11 11 12 12 12 13 13 13 13 13 13 14 14 14 14 14 14 14 15 15 14 14 14 14 13
0 1 1 1 2 1 1 1 1 2 3 3 4 5 5 5 6 6 7 7 7 7 8 8 9 9 9 8 9 9 9 10 10 10 10 10 10 10 11 11 12 12 13 13 13 13 13 13 14 14 14 14 14 14 14 14 14 14 14 14 14 14 14
0 1 1 1 1 2 1 1 1 1 2 3 3 4 4 5 6 6 6 7 7 8 8 8 8 9 9 9 9 9 9 10 10 10 11 11 11 11 11 11 11 12 12 13 13 13 13 14 14 14 14 14 15 15 15 15 14 14 14 14 14 14 14
-0 0 1 1 1 2 2 1 1 1 1 2 3 3 4 5 5 6 6 7 7 8 8 8 8 9 9 9 9 9 9 9 10 10 11 11 11 11 11 11 11 12 12 13 13 13 14 14 14 14 15 15 15 15 15 15 14 14 14 13 13 13 14

ECMWFFLT1_700_temp_075.txt.gz
Temp
15 14 14 13 13 13 12 12 12 12 12 12 12 12 11 11 11 11 11 11 11 11 11 11 11 11 11 11 11 10 10 10 10 10 10 10 10 10 10 10 10 10 10 10 10 10 10 10 10 10 10 10 10 9 9 9 9 9 9 9 9 9 9
15 15 14 14 13 13 13 12 12 12 12 12 12 12 11 11 11 11 11 11 11 11 11 11 11 11 11 11 11 11 11 11 11 10 10 10 11 11 10 10 10 10 10 10 10 10 10 10 10 10 10 10 10 10 9 9 9 9 9 9 9 9 9
15 15 15 14 13 13 13 13 12 13 13 12 12 12 12 11 11 11 11 11 11 11 11 11 11 11 11 11 11 11 11 11 11 11 10 10 11 11 11 10 10 10 10 10 10 10 10 10 10 10 10 10 10 10 10 10 9 9 9 9 9 9 9
15 15 15 15 14 13 13 12 12 12 12 12 12 12 11 11 11 11 11 11 11 11 11 11 11 11 11 11 11 11 11 11 11 11 11 10 10 10 11 11 10 10 10 10 10 10 10 10 10 10 10 10 10 10 10 10 10 9 9 9 9 9 10
15 15 15 15 14 14 13 13 12 12 11 11 12 11 11 11 11 11 11 11 11 11 11 11 11 11 11 11 11 11 11 11 11 11 11 11 10 10 10 11 11 10 10 10 10 10 10 10 10 10 10 10 10 10 10 10 10 10 9 9 9 9 10
15 15 15 15 15 14 13 13 12 12 11 11 11 11 11 11 11 11 11 11 11 11 11 11 11 11 11 11 11 11 11 11 11 11 11 11 11 11 10 10 10 10 10 10 10 10 10 10 10 10 10 10 10 10 10 10 10 10 10 10 10 10 10
15 15 15 15 15 14 14 13 12 12 12 12 11 11 11 11 11 10 10 11 11 11 11 11 11 11 11 11 11 11 11 11 11 11 11 11 11 11 11 10 10 10 10 10 10 10 10 10 10 10 10 10 10 10 10 10 10 10 10 10 10 10 10
14 15 15 15 15 14 14 14 13 13 13 12 12 12 11 11 11 10 10 10 10 10 10 10 10 11 11 11 11 11 11 11 11 11 11 11 11 11 11 11 10 10 10 10 10 10 10 10 10 10 10 10 10 10 10 10 10 10 10 10 10 10 10
14 14 14 15 14 14 14 14 14 14 14 13 12 12 12 11 11 10 10 10 10 10 10 10 10 10 10 11 11 11 11 11 11 11 11 11 11 11 11 11 11 10 10 10 10 10 10 10 10 10 10 10 10 10 10 10 10 10 10 10 10 10 10
13 13 13 14 14 14 13 13 13 13 13 13 13 13 12 12 12 11 11 10 10 10 10 10 10 10 10 10 11 11 11 11 11 11 11 11 11 11 11 11 11 10 10 10 10 10 10 10 10 10 10 10 10 10 10 10 10 10 10 10 10 10 10
11 12 12 12 13 13 13 12 12 12 12 12 13 13 13 12 12 12 11 11 11 10 10 10 10 10 10 10 10 10 11 11 11 11 11 11 11 11 11 11 11 11 10 10 10 10 10 10 10 10 10 10 10 10 10 10 10 10 10 10 10 10 10
9 10 9 10 11 12 12 12 11 11 11 11 11 12 13 12 12 12 12 11 11 10 10 10 10 10 10 10 10 10 10 10 11 11 11 11 11 11 11 11 11 11 11 11 10 10 10 10 10 10 10 10 10 10 10 10 10 10 10 10 10 10 10
8 8 8 9 9 10 10 10 11 10 10 10 10 11 11 12 12 12 12 11 11 11 10 10 10 10 10 10 10 10 10 10 10 10 11 11 11 11 11 11 11 11 11 11 11 11 11 11 10 10 10 10 10 10 10 10 10 10 10 10 10 11 10
7 8 8 8 8 8 9 9 9 9 10 10 10 10 10 11 12 12 12 12 12 11 11 11 10 10 10 10 10 10 10 10 10 10 10 10 11 11 11 11 11 11 11 11 11 11 11 11 11 10 10 10 10 10 10 10 10 10 10 10 11 11 11
7 8 8 8 8 8 9 9 9 9 9 9 9 9 9 10 11 11 12 12 12 11 11 11 11 11 10 10 10 10 10 10 10 10 10 10 10 10 11 11 11 11 11 11 11 11 11 11 11 11 10 10 10 10 10 10 10 11 11 11 11 11 11
8 8 8 8 8 8 9 9 9 9 9 9 9 9 9 9 10 10 11 12 12 11 11 11 11 11 11 11 10 10 10 10 10 10 10 10 10 10 11 11 11 11 11 11 11 11 11 11 11 11 11 11 11 11 11 11 11 11 11 11 11 11 11
7 8 8 8 8 8 8 8 9 9 9 9 9 9 9 9 9 9 10 11 11 11 11 11 11 11 11 11 11 11 10 10 10 10 10 10 10 10 10 11 11 11 11 11 11 11 11 11 11 11 11 11 11 11 11 11 11 11 11 11 11 11 11
7 7 7 7 7 7 7 8 8 8 9 9 9 9 9 9 9 9 9 10 11 11 11 11 11 11 11 11 11 11 11 10 10 10 10 10 10 10 10 10 11 11 11 11 11 11 11 11 11 11 11 11 11 11 11 11 11 11 11 11 11 11 11
7 7 7 7 7 7 7 7 7 7 8 8 9 9 9 9 9 9 9 9 10 11 11 11 11 11 11 11 11 11 11 11 11 10 10 10 10 10 10 10 10 10 11 11 11 11 11 11 11 11 11 11 11 11 11 11 11 11 11 11 11 11 11
7 7 7 7 7 7 7 7 7 7 7 7 7 8 8 9 9 9 9 9 9 10 11 11 10 11 11 11 11 11 11 11 11 11 11 11 10 10 10 10 10 10 10 10 11 11 11 11 11 11 11 11 11 11 11 11 11 11 11 11 11 11 11
6 7 7 7 7 7 7 6 7 6 6 6 6 6 7 7 8 8 9 9 9 10 10 10 11 11 12 11 11 11 11 11 11 11 11 11 11 11 11 11 10 10 10 10 10 10 11 11 11 11 11 11 11 11 11 11 11 11 11 11 11 11 11
6 6 7 7 7 7 7 7 7 6 6 6 6 6 6 7 7 7 8 9 9 10 11 11 11 12 11 11 11 11 11 11 11 11 11 11 11 11 11 11 11 10 10 10 10 10 10 11 11 11 11 11 11 11 11 11 11 11 11 11 11 11 11
5 6 6 6 7 7 7 7 7 7 7 6 6 6 6 7 7 7 7 8 9 10 10 10 11 11 11 11 11 10 10 11 11 11 11 11 11 11 11 11 11 11 10 10 10 10 10 11 11 11 11 11 11 11 11 12 12 12 12 12 11 11 11
5 5 5 6 6 7 7 7 7 7 7 7 7 7 7 7 7 7 7 7 8 9 9 10 10 11 11 11 10 11 11 11 11 11 11 11 11 11 11 11 11 11 11 11 11 11 11 11 11 11 11 11 11 11 12 12 12 12 12 12 12 11 11
4 4 5 5 5 6 7 7 7 7 7 7 7 7 7 7 7 7 7 7 8 8 8 9 10 10 10 10 10 11 11 10 11 11 11 11 11 11 11 11 11 11 11 11 11 11 11 11 11 11 11 11 11 11 12 12 12 12 12 12 12 12 12
3 4 4 4 5 5 6 6 7 7 7 7 8 8 8 7 7 7 7 7 7 7 8 8 9 9 9 9 10 10 10 10 10 10 11 11 11 11 11 10 10 10 11 11 11 11 11 11 11 12 12 12 12 12 12 13 13 13 13 12 12 12 12
3 3 3 4 4 4 5 5 6 6 6 7 7 8 8 8 8 8 7 7 7 7 7 8 8 9 8 8 9 9 10 10 10 10 11 10 10 10 10 10 10 10 11 11 11 11 11 11 11 12 12 12 12 12 12 13 13 13 13 13 13 12 12
2 3 3 3 4 4 4 4 5 5 6 6 7 7 8 8 8 8 8 7 7 7 7 7 8 8 8 8 8 9 9 9 10 10 10 10 10 10 10 10 10 10 10 10 11 11 11 11 11 11 12 12 12 12 12 13 13 13 13 13 13 13 13
2 2 2 3 3 3 4 4 4 5 5 5 6 7 7 8 8 8 8 8 8 7 7 7 7 8 8 8 8 8 9 9 9 9 9 9 9 10 10 10 10 10 10 10 10 11 11 11 11 11 11 12 12 12 12 13 13 13 13 13 13 13 13
2 2 2 2 2 3 3 4 4 4 5 5 5 6 6 7 8 8 8 8 8 8 7 7 7 8 8 7 8 8 8 8 9 9 9 10 10 10 10 11 11 10 10 10 10 10 11 11 11 11 11 11 12 12 12 13 13 14 14 14 13 13 13
2 2 2 2 2 2 2 3 3 4 4 4 5 5 5 6 7 8 8 8 8 8 8 8 7 7 7 7 8 8 8 8 8 9 9 10 10 10 10 11 11 10 9 10 10 10 10 11 11 11 11 11 12 12 12 13 13 14 14 14 14 13 13
2 2 2 3 3 3 2 2 3 3 3 4 4 4 5 5 6 7 8 8 8 8 8 8 8 7 7 7 8 8 8 8 8 8 9 9 10 10 11 11 11 10 9 10 10 10 11 11 11 11 11 12 12 12 12 13 13 14 14 14 14 14 14
2 2 3 3 3 3 3 3 3 3 3 3 4 4 4 5 5 6 7 8 8 8 8 9 8 8 8 8 8 8 8 8 8 8 9 9 9 10 10 11 11 10 10 9 10 10 11 11 11 11 12 12 13 13 13 13 13 14 14 14 14 14 14
1 2 2 2 2 2 3 3 3 3 3 3 3 3 4 4 5 5 6 6 7 8 8 9 9 9 8 8 8 8 8 8 8 8 9 9 9 9 10 10 10 10 10 10 10 10 10 11 11 11 12 12 12 12 12 12 13 13 14 14 14 14 14
1 1 1 2 2 2 2 3 3 3 3 3 3 3 3 4 4 5 5 6 6 7 8 9 9 9 9 9 8 8 8 8 8 8 8 9 9 9 9 9 10 10 10 10 11 11 11 11 11 12 12 12 12 12 12 13 13 13 13 13 13 13 13
1 1 1 1 1 2 2 2 2 2 3 3 3 2 3 3 4 4 5 5 5 6 7 8 9 9 9 9 9 9 8 8 8 8 8 9 9 9 9 9 9 10 10 10 10 11 11 11 11 12 12 12 12 13 13 13 13 12 12 12 12 12 11
1 1 1 1 1 1 1 1 2 2 2 3 3 3 2 3 3 4 4 5 5 5 6 7 8 9 9 9 9 9 9 9 8 9 8 9 9 9 9 9 10 10 10 10 10 11 11 12 12 12 12 12 13 13 13 14 13 13 12 12 12 12 12
0 0 1 1 1 1 1 1 1 2 2 2 3 3 3 2 3 3 4 4 5 5 5 6 7 8 9 9 9 9 9 9 9 9 9 9 9 9 9 10 10 10 10 10 10 10 11 11 12 12 12 12 13 13 13 14 14 13 13 13 13 12 12

ECMWFFLT1_700_temp_078.txt.gz
Temp
14 13 13 13 13 12 12 12 12 12 11 11 11 11 11 11 11 11 12 11 11 11 11 11 11 11 11 11 10 10 10 10 10 10 10 10 10 10 10 10 10 10 10 10 9 9 10 10 10 10 10 10 10 10 10 10 9 9 10 10 9 9 9
13 13 14 14 13 13 12 12 12 12 11 11 11 11 11 11 11 11 12 12 11 11 11 11 11 11 11 11 11 10 10 10 10 10 11 10 10 10 10 10 10 10 10 10 10 10 10 10 10 10 10 10 10 10 10 10 10 10 10 10 9 9 9
13 13 13 13 13 13 13 12 12 12 11 11 11 11 11 11 11 11 11 11 11 11 11 11 11 11 11 11 11 11 10 10 10 10 11 11 10 10 10 10 10 10 10 10 10 10 10 10 10 10 10 10 10 10 10 10 10 10 10 10 10 9 9
14 13 12 11 11 13 13 12 12 12 12 11 11 11 11 11 11 11 11 11 11 11 11 11 11 11 11 11 11 11 11 10 10 10 10 10 10 10 10 10 10 10 10 10 10 10 10 10 10 10 10 10 10 10 10 10 10 10 10 10 10 10 10
14 13 13 12 11 11 12 12 12 12 12 11 11 11 11 11 11 10 10 10 10 11 11 11 11 11 11 11 11 11 11 11 11 10 10 10 10 10 11 10 10 10 10 10 10 10 10 10 10 10 10 10 10 10 10 10 10 10 10 10 10 10 10
14 14 13 12 11 11 11 12 12 12 12 11 11 11 11 11 11 10 10 10 10 10 10 10 10 10 11 11 11 11 11 11 11 11 10 10 10 10 10 10 10 10 10 10 10 10 10 10 10 10 10 10 10 10 10 10 10 10 10 10 10 10 10
14 14 13 12 12 12 11 11 12 12 12 11 11 11 11 11 11 10 10 10 10 10 10 10 10 10 10 10 11 11 11 11 11 11 11 10 10 10 10 10 10 10 10 10 10 10 10 10 10 10 10 10 10 10 10 10 10 10 10 10 10 10 10
14 14 14 13 12 12 12 12 12 12 12 11 10 10 11 11 11 10 10 10 10 11 11 11 11 11 10 10 10 11 11 11 11 11 11 11 10 10 10 10 10 10 10 10 10 10 10 10 10 10 10 10 10 10 10 10 10 10 10 10 10 10 10
13 14 14 14 13 12 12 12 12 12 12 11 11 10 10 10 10 11 11 11 11 11 10 10 10 11 11 11 11 10 10 10 10 11 11 11 11 10 10 10 10 10 10 10 10 10 10 10 10 10 10 10 10 10 10 10 10 10 10 10 10 10 10
13 13 13 13 13 12 12 12 12 12 12 12 11 11 11 10 10 11 11 11 10 10 10 10 10 10 11 11 11 11 10 10 10 10 10 11 11 11 10 10 10 10 10 10 10 10 10 10 10 10 11 11 11 10 10 10 10 10 10 10 10 10 10
12 12 13 13 13 12 12 12 12 12 12 12 12 12 11 11 11 11 11 11 11 10 10 10 10 10 10 11 11 11 11 10 10 10 10 10 10 10 10 10 10 10 10 10 10 10 10 10 10 10 10 11 11 11 11 10 10 10 10 10 10 10 10
11 11 12 12 12 12 12 12 12 12 12 11 11 11 11 11 11 11 12 11 11 11 11 10 10 10 10 10 10 10 11 11 10 10 10 10 10 10 10 10 10 10 10 10 10 10 11 10 10 10 11 11 11 11 11 10 10 10 10 10 10 10 10
9 10 10 10 11 12 12 12 12 12 12 11 11 10 11 11 11 11 12 12 11 11 11 11 10 10 10 10 10 10 10 11 11 10 10 10 10 10 10 10 10 10 10 10 10 10 10 11 11 11 11 11 11 11 11 11 11 11 11 10 10 10 10
8 8 9 9 10 10 11 11 11 11 11 11 11 11 10 10 11 11 11 12 11 11 11 11 11 11 10 10 10 10 10 10 10 10 10 10 10 10 10 10 10 10 10 10 10 10 10 10 11 11 11 11 11 11 11 11 11 11 11 11 11 11 11
7 8 8 8 9 9 9 10 10 10 10 10 11 11 10 10 10 11 11 11 11 11 11 11 11 11 11 10 10 10 10 10 10 10 10 10 10 10 10 10 11 10 10 10 10 10 10 10 10 10 11 11 11 11 11 11 11 11 11 11 11 11 11
7 7 8 8 8 9 9 9 9 10 9 9 10 10 10 10 10 10 11 11 11 11 11 11 11 11 11 11 11 10 10 10 10 10 10 10 10 10 10 10 10 11 11 11 11 10 10 10 10 10 10 11 11 11 11 11 11 11 11 11 11 11 11
7 7 8 8 8 8 8 8 9 9 9 9 9 9 9 9 9 10 10 11 11 11 11 11 11 11 11 11 11 10 10 10 10 10 10 10 10 10 10 10 10 10 11 11 11 11 10 10 10 10 11 10 11 11 11 11 11 12 12 11 11 11 11
7 7 8 8 8 8 8 8 8 8 9 9 9 9 9 9 9 10 10 10 10 10 10 11 11 11 11 10 10 10 10 10 10 10 10 10 10 10 10 10 10 10 11 11 11 11 11 11 11 11 11 10 11 11 11 11 11 11 11 11 11 11 11
6 7 7 8 8 8 8 8 8 8 8 8 9 9 9 9 9 9 10 10 10 10 10 10 11 11 11 10 10 10 10 10 10 10 10 10 10 10 10 10 10 10 10 11 11 11 11 11 11 11 11 11 11 11 11 11 11 11 11 11 11 11 11
6 6 7 7 7 7 7 8 8 8 8 8 8 8 8 9 9 9 9 9 10 10 10 10 10 10 10 10 10 10 10 10 10 10 10 10 10 11 11 11 11 11 11 11 11 11 11 11 11 11 11 11 11 11 11 11 11 11 11 11 11 11 11
6 6 6 7 7 7 7 7 7 8 8 8 8 8 8 8 8 9 9 9 9 9 10 10 10 10 10 10 10 11 11 11 10 10 10 10 10 10 11 11 11 11 11 11 11 11 11 11 11 11 11 11 11 11 11 11 11 11 11 11 11 11 11
6 7 6 6 7 7 7 7 7 7 7 7 7 7 7 7 8 8 8 8 9 9 9 9 9 10 10 10 10 11 11 11 11 11 11 11 10 10 10 10 10 10 10 10 11 11 11 11 11 11 11 11 11 11 11 11 11 11 11 11 11 11 11
6 6 6 7 7 7 7 7 7 7 7 7 7 7 7 7 8 8 8 8 8 8 8 9 9 9 10 10 11 11 11 11 11 11 11 11 11 10 10 10 10 10 10 10 10 11 11 11 11 11 11 11 11 11 11 12 12 12 11 11 11 11 11
6 6 6 7 7 7 7 7 7 7 7 7 7 7 7 7 7 7 8 8 8 8 8 8 9 9 10 10 11 10 10 10 11 11 11 11 11 11 10 10 10 10 10 10 10 10 11 11 11 11 11 12 12 12 12 12 12 12 12 12 11 11 11
5 6 6 6 7 7 7 7 7 7 7 7 7 7 7 7 7 7 7 7 8 8 8 8 9 9 9 9 10 10 10 10 11 11 11 11 11 11 10 10 10 10 10 10 10 11 11 11 11 11 12 12 12 12 12 12 12 12 12 12 12 12 11
4 4 5 6 6 6 7 7 7 7 7 8 8 7 7 7 7 7 7 7 7 7 8 8 8 9 9 9 9 10 10 10 10 11 11 11 11 11 10 10 10 10 10 10 10 10 11 11 11 11 11 12 12 12 12 12 12 12 12 12 12 12 12
4 4 4 4 5 6 6 6 7 7 7 8 8 8 8 8 7 7 7 7 7 7 7 8 8 8 8 8 8 8 9 9 10 10 10 10 11 10 10 11 11 10 10 10 10 10 11 11 11 11 11 11 12 12 12 12 12 12 13 13 13 13 12
4 4 4 4 4 4 5 5 6 6 7 7 7 8 8 8 8 8 8 8 8 7 7 8 8 8 8 8 8 8 8 8 9 9 9 10 10 10 10 11 11 11 11 11 11 11 11 11 11 11 11 11 12 12 12 12 12 12 13 13 13 13 13
4 4 4 4 4 4 4 5 5 5 6 6 7 7 7 8 8 8 8 8 8 8 8 8 8 8 8 8 8 8 8 8 8 8 9 9 9 10 10 10 10 10 11 11 11 11 11 11 11 11 11 11 12 12 12 12 12 12 12 13 13 13 13
3 4 4 4 3 3 4 4 4 5 5 5 6 6 6 7 7 8 8 8 8 8 8 8 8 8 7 7 8 8 8 8 8 8 8 8 9 9 9 9 10 10 10 10 11 11 11 11 11 11 11 11 11 12 12 12 12 12 12 12 13 13 13
3 4 4 4 4 4 4 4 4 4 4 4 5 5 6 6 6 7 7 8 8 8 8 8 8 8 8 8 8 7 7 8 8 8 8 8 9 9 9 9 9 9 10 10 10 10 11 11 11 11 11 12 12 12 12 12 12 12 12 12 12 12 12
3 3 3 4 4 4 4 4 4 4 4 4 4 4 5 5 6 6 7 7 7 8 8 9 8 8 8 8 8 8 8 7 7 8 8 8 8 8 9 9 9 9 9 10 10 10 11 11 11 11 11 12 12 12 12 12 12 12 12 12 12 12 12
2 2 3 3 4 4 4 4 4 4 4 4 4 4 4 4 5 5 6 6 7 7 8 8 9 9 8 8 8 8 8 8 8 8 8 8 8 8 8 9 9 9 9 9 10 10 11 11 11 11 11 11 11 11 11 11 11 11 11 11 11 12 12
2 2 2 2 3 3 3 4 4 4 4 4 4 3 4 4 4 4 5 6 6 7 7 8 8 9 9 8 8 8 8 8 8 8 8 8 8 8 8 8 9 9 9 9 9 10 10 11 11 11 11 11 11 10 10 10 10 11 11 10 10 10 11
1 2 2 2 2 2 3 3 3 3 3 4 3 3 3 4 4 4 4 5 5 6 6 7 8 8 9 9 9 8 8 8 8 8 8 8 8 8 8 8 8 9 9 9 9 9 10 10 10 11 11 11 10 10 10 10 11 10 10 10 9 9 10
2 2 2 2 2 2 2 3 3 3 3 3 3 3 3 3 3 4 4 4 4 5 5 6 7 7 8 8 9 9 9 9 9 9 9 9 8 8 8 8 8 8 9 9 9 9 10 10 10 10 10 11 11 11 11 11 11 11 10 11 10 9 9
2 2 2 2 2 2 2 2 2 3 3 3 3 3 3 3 3 3 3 3 4 4 5 5 6 7 7 8 8 9 9 9 9 9 9 9 9 9 9 9 8 8 9 9 9 9 10 10 10 10 10 11 11 11 11 11 11 11 11 11 10 10 9
2 2 2 2 2 2 2 2 2 2 3 3 3 3 3 3 3 3 3 3 3 3 4 4 5 6 6 7 7 8 9 9 9 9 9 9 9 9 9 9 9 8 9 9 9 9 10 10 10 10 10 11 11 11 12 11 11 11 11 11 11 11 10

ECMWFFLT1_700_temp_084.txt.gz
Temp
11 11 11 11 11 11 11 11 11 12 12 12 11 11 11 11 11 12 12 11 12 12 12 11 11 11 11 11 11 11 11 11 11 11 11 11 11 11 11 10 10 10 11 11 11 11 11 10 10 10 11 11 11 11 11 11 11 11 11 11 11 11 11
11 11 11 11 11 11 11 11 12 12 12 12 11 11 11 10 10 11 11 11 11 12 11 11 11 11 11 11 11 11 11 11 11 11 11 11 11 11 11 11 11 10 11 11 11 11 11 11 10 10 11 11 11 11 11 11 11 11 11 11 11 11 11
11 11 11 11 11 11 11 12 12 11 11 11 11 11 11 10 10 10 11 11 11 11 11 11 11 11 11 11 11 11 11 11 11 11 11 11 11 11 11 11 11 11 11 11 11 11 11 11 11 11 11 11 11 11 11 11 11 11 11 11 11 11 11
11 11 11 11 11 11 11 11 11 11 11 11 11 11 11 10 10 10 10 10 11 11 11 11 11 11 11 11 11 11 11 11 11 11 11 11 11 11 11 11 11 11 11 11 11 10 10 11 11 11 11 11 11 11 11 11 11 11 11 11 11 11 11
11 11 11 11 11 11 11 11 11 11 11 11 11 11 11 10 11 10 10 10 10 10 11 11 11 11 11 11 11 11 11 11 11 11 11 11 11 11 11 11 11 11 11 11 11 10 11 11 11 11 11 11 11 11 11 11 11 11 11 11 11 11 11
10 10 11 11 11 11 11 11 11 10 11 10 11 11 11 10 11 11 10 10 9 9 10 11 11 11 11 11 11 11 11 11 11 11 11 11 11 11 11 11 11 11 11 11 11 11 11 11 11 11 11 11 11 11 11 11 11 11 11 11 11 11 11
11 10 11 12 12 11 11 11 11 11 11 11 11 11 11 10 11 11 10 10 10 9 10 10 10 10 11 11 11 11 11 11 11 11 11 11 11 11 11 11 11 11 11 11 11 11 11 11 11 11 11 11 11 11 11 11 11 11 11 11 11 11 11
12 11 11 12 12 12 12 11 11 11 11 11 11 11 10 10 10 11 10 10 10 10 11 11 11 10 11 11 11 11 11 11 11 11 11 11 11 11 11 11 11 11 11 11 11 11 11 11 11 11 11 11 11 11 11 11 11 11 11 11 11 11 11
13 12 12 13 13 13 12 11 11 11 11 11 11 11 10 10 11 11 11 11 11 11 11 11 11 11 11 11 11 10 10 10 11 11 11 11 11 11 11 11 11 11 11 11 11 11 11 11 11 11 11 11 11 11 11 11 11 11 11 11 11 11 11
13 13 13 12 12 12 12 11 11 11 11 11 10 10 10 10 11 11 11 11 11 11 11 10 11 11 11 11 11 11 11 10 10 11 11 11 11 11 11 11 11 11 11 11 11 11 11 11 11 11 11 11 11 11 11 11 11 11 12 11 11 11 11
13 12 11 11 11 11 11 11 11 11 11 10 10 10 10 10 11 11 10 10 11 10 10 10 11 11 11 11 11 11 11 11 10 10 11 11 11 11 11 11 11 11 11 11 11 11 11 11 11 11 11 11 11 11 11 11 11 11 11 12 12 11 11
11 11 10 9 10 10 11 10 11 11 11 11 11 10 10 10 11 11 11 10 10 10 10 10 11 11 11 11 11 11 11 11 11 10 10 11 11 11 11 11 11 11 11 11 11 11 11 11 11 11 11 11 11 11 11 11 11 11 11 12 12 12 12
9 9 9 9 9 10 10 10 10 11 11 11 11 11 12 11 10 10 10 10 11 11 11 11 11 12 11 11 11 11 11 10 10 10 10 10 10 10 11 11 11 11 11 11 11 11 11 11 11 11 11 11 11 11 11 11 11 11 11 11 11 12 12
9 9 9 9 9 9 10 10 10 10 10 11 11 11 12 12 11 10 10 10 10 10 11 12 12 12 11 11 11 10 10 10 10 9 10 10 10 10 11 11 11 10 11 11 11 11 11 11 11 11 11 11 11 11 11 11 11 11 11 11 11 11 11
8 8 9 9 9 9 10 10 10 10 10 10 10 10 11 11 10 10 10 10 10 10 10 11 11 11 10 11 11 10 10 10 10 10 10 11 11 11 10 10 10 10 10 10 11 11 11 11 11 11 11 11 11 11 11 11 11 11 11 11 11 11 11
8 9 9 9 9 9 9 9 10 10 10 10 10 10 10 10 10 9 9 10 10 10 10 10 10 10 10 10 10 10 10 11 10 10 10 10 11 11 11 11 11 10 10 9 10 10 10 11 10 10 11 11 11 11 11 11 11 11 11 11 11 11 11
8 9 9 9 9 9 9 9 9 9 9 10 10 10 10 10 10 9 9 9 9 10 10 10 10 10 10 9 9 10 10 10 10 10 10 10 10 10 10 11 11 11 11 10 10 9 10 10 10 10 10 11 11 11 11 11 11 11 11 11 11 11 11
8 9 9 9 9 9 9 9 9 9 9 9 10 10 10 10 10 10 9 9 9 10 10 10 10 10 10 10 9 9 10 10 10 10 10 11 11 11 10 10 11 11 11 11 11 11 11 11 11 10 10 10 11 11 11 11 11 11 12 11 11 11 11
8 8 9 9 9 9 9 9 9 9 9 9 9 9 10 10 10 10 10 10 10 10 10 10 10 10 10 10 10 10 10 10 10 10 10 10 11 11 11 11 11 10 10 11 11 11 11 11 11 11 11 11 11 11 11 12 12 12 12 12 12 11 11
8 8 9 9 9 9 9 9 9 9 9 9 9 9 9 10 10 10 10 10 10 10 10 10 10 10 10 10 10 10 10 10 10 10 10 10 10 11 11 11 11 11 11 11 11 10 11 11 11 11 11 11 11 11 11 12 12 12 12 12 12 12 12
7 8 8 8 9 9 9 9 9 9 10 10 10 10 10 10 10 10 10 10 9 10 10 10 10 10 10 10 10 10 10 10 10 10 9 10 10 11 11 11 11 11 11 11 11 11 11 10 10 10 10 11 11 11 11 12 12 12 12 12 12 12 12
7 7 8 8 8 9 9 9 9 9 9 9 10 10 9 9 9 9 9 9 9 9 10 10 10 10 10 10 10 10 10 10 10 10 10 10 10 10 11 11 11 11 11 11 11 11 11 11 11 11 10 10 11 11 11 11 11 11 11 11 12 12 12
6 7 7 7 8 8 8 8 8 9 9 9 9 9 9 9 9 9 9 9 9 9 9 9 9 9 10 10 10 10 10 10 10 10 10 10 10 10 10 11 11 11 11 11 11 11 11 11 11 11 11 11 11 11 11 11 11 11 11 11 11 11 11
6 6 6 7 7 7 7 7 8 8 8 8 8 9 9 9 9 9 8 8 9 9 9 9 9 9 9 9 9 10 10 10 11 11 10 10 10 10 10 11 11 11 11 11 11 11 11 11 11 11 11 11 11 11 10 10 11 11 11 11 11 11 11
5 6 6 6 7 7 6 7 7 7 8 8 8 8 8 8 8 8 8 8 8 8 8 9 9 9 9 9 9 9 10 10 10 10 10 10 10 10 10 11 10 10 10 10 10 11 11 11 11 11 10 10 11 11 10 10 10 10 10 11 11 11 11
5 5 6 6 6 6 6 7 7 7 7 7 7 7 8 8 8 8 8 8 8 8 8 8 8 9 9 9 9 9 9 9 9 9 9 9 10 10 10 10 10 10 10 10 10 10 10 11 11 11 11 10 11 11 11 10 10 10 10 10 10 11 11
5 5 6 6 6 6 6 7 7 7 7 7 7 7 7 8 8 8 8 8 8 8 8 8 8 8 8 8 9 9 9 9 9 9 9 9 9 9 9 9 10 10 10 10 10 10 10 10 10 11 11 11 10 11 10 10 10 9 9 9 10 10 10
5 5 6 6 6 6 7 7 6 7 7 7 7 7 7 7 8 8 7 8 8 8 8 8 8 8 8 8 8 8 9 9 9 9 9 9 9 9 9 9 9 10 10 10 10 10 10 10 10 10 10 10 10 10 10 10 9 9 9 9 10 10 10
5 5 5 5 6 6 7 7 7 7 7 7 7 7 7 8 8 8 8 8 8 8 8 8 8 8 8 8 8 8 8 8 8 8 8 9 9 9 9 9 9 9 9 9 10 10 10 10 10 10 10 10 10 10 10 10 10 10 10 10 10 10 10
5 5 5 5 5 6 6 6 7 7 7 7 7 7 8 8 8 8 8 8 8 8 8 8 8 8 8 8 8 8 8 8 8 8 8 8 9 9 9 9 9 9 10 10 10 10 10 10 10 10 10 10 10 9 10 10 10 10 10 10 10 10 10
4 4 5 5 5 6 6 6 6 6 7 7 7 8 8 8 8 8 8 8 8 8 8 8 8 8 8 8 8 8 8 8 8 8 8 8 9 9 9 9 9 9 10 10 10 9 9 9 9 9 10 10 10 10 10 10 10 11 11 10 10 9 10
4 4 5 5 5 5 5 5 6 6 6 7 7 7 7 8 8 8 8 8 8 8 8 9 9 9 9 9 9 8 8 8 8 8 8 8 9 9 9 9 9 9 9 10 10 9 9 9 9 9 9 9 9 10 10 10 10 11 10 10 10 9 9
4 4 4 5 5 5 5 5 5 6 6 6 6 7 7 7 7 8 8 8 8 8 9 9 9 9 9 9 9 9 9 9 9 8 8 8 8 8 9 9 9 9 10 9 9 9 9 9 9 9 9 9 9 10 10 11 10 10 10 9 9 9 9
4 4 4 4 4 5 5 5 5 5 5 6 6 6 6 7 7 7 7 8 8 8 8 8 9 9 9 9 9 9 9 9 9 9 9 8 8 8 8 8 9 9 10 9 9 9 10 10 10 9 9 9 10 10 10 10 10 10 10 9 9 9 9
3 3 3 4 4 4 4 4 4 4 5 5 5 5 5 6 6 6 6 7 7 7 8 8 8 8 8 9 9 9 9 9 9 9 9 9 9 8 8 8 9 9 10 9 9 9 10 9 9 9 9 10 10 10 10 10 10 10 10 10 9 9 9
3 3 3 3 3 4 4 4 4 4 4 4 4 5 5 5 5 5 6 6 6 7 7 7 7 8 8 8 8 8 8 8 9 9 9 9 9 9 9 8 8 9 9 9 9 9 9 9 9 9 9 10 10 10 10 10 10 9 9 9 9 9 9
3 3 3 3 3 3 3 4 4 4 4 4 4 4 4 4 5 5 5 5 6 6 6 6 7 7 7 7 7 7 8 8 8 8 8 9 9 9 9 9 9 9 9 9 9 9 9 9 9 9 9 10 10 10 9 10 10 9 9 9 9 9 9
3 3 2 3 3 3 3 3 3 4 4 4 4 4 4 4 4 4 4 5 5 5 6 6 6 6 6 7 7 7 7 7 7 7 8 8 8 8 9 9 9 9 9 9 9 9 9 9 9 9 9 9 10 10 10 9 9 9 9 9 9 9 9

ECMWFFLT1_700_temp_087.txt.gz
Temp
11 11 11 11 11 10 10 10 10 10 11 10 9 10 10 10 11 11 11 11 11 11 11 11 11 11 11 11 11 11 10 10 10 10 10 11 10 11 10 10 10 10 10 10 10 10 10 10 10 10 10 10 10 10 10 10 10 10 10 10 10 10 10
11 11 11 11 11 10 10 10 10 10 10 10 9 9 10 10 11 12 11 11 11 11 11 11 11 11 11 11 11 11 10 10 10 10 10 11 11 10 11 10 10 10 10 10 10 10 10 10 10 10 10 10 10 10 10 10 10 10 10 10 10 10 10
11 11 11 11 11 10 10 11 10 10 10 10 10 9 10 10 11 12 11 11 11 11 11 11 11 11 11 11 11 11 11 10 10 10 10 11 11 10 10 10 10 10 10 10 10 10 10 10 10 10 10 10 10 10 10 10 10 10 10 10 10 10 10
10 10 10 11 11 10 10 10 10 10 10 10 9 10 10 10 11 11 11 11 11 11 11 11 11 11 11 11 11 11 11 11 10 10 10 10 11 10 10 10 10 10 10 10 10 10 10 10 10 10 11 10 10 10 10 10 10 10 10 10 10 10 11
10 10 10 11 10 10 10 10 10 10 10 10 9 9 10 10 10 11 11 11 11 11 11 11 11 11 11 11 11 11 11 11 11 10 10 10 10 11 10 10 10 10 10 10 10 10 10 11 11 11 11 11 11 11 11 11 11 10 10 10 10 11 10
10 10 11 11 11 10 11 10 10 10 10 10 10 10 10 10 10 11 11 11 11 11 11 11 11 11 11 11 11 11 11 11 11 11 10 10 11 11 11 10 10 10 10 10 10 10 10 10 11 11 11 11 11 11 11 11 11 11 11 11 10 11 11
10 10 11 11 11 11 11 11 10 10 10 10 10 10 10 10 10 10 10 10 11 11 12 11 11 11 11 11 11 11 11 11 11 11 11 11 11 11 11 10 10 10 10 10 10 10 10 10 10 11 11 11 11 11 11 11 11 11 11 11 11 11 11
10 11 11 12 12 11 11 10 10 10 10 10 10 10 10 10 10 10 10 10 10 11 11 12 11 11 11 11 11 11 11 11 11 11 11 11 11 11 11 11 10 10 10 10 10 10 10 10 10 10 11 11 11 11 11 11 11 11 11 11 11 11 11
11 11 11 11 12 12 11 11 11 11 10 10 10 10 10 10 10 10 10 10 10 10 11 11 11 11 10 11 11 11 11 11 11 10 10 11 11 11 11 11 10 10 10 10 10 10 10 10 10 10 10 10 11 11 11 11 11 11 11 11 11 11 11
11 12 12 11 11 11 11 11 11 11 11 10 10 10 10 10 10 10 10 10 10 10 10 11 10 10 10 10 10 10 11 11 11 11 10 11 11 11 11 11 11 10 10 10 10 10 10 10 10 10 10 10 10 10 11 11 11 11 11 11 11 11 11
11 11 11 11 10 10 11 11 11 11 11 11 10 10 10 10 10 10 10 10 10 10 10 9 9 9 10 10 10 10 10 10 10 11 11 11 11 11 11 11 11 11 10 10 10 10 10 10 10 10 10 10 10 10 10 10 11 11 11 11 11 11 11
11 10 10 10 10 10 10 10 10 11 11 11 11 10 10 10 10 10 10 10 10 10 9 9 9 9 9 10 10 10 10 10 10 10 11 11 11 11 11 11 11 11 11 11 11 11 11 11 11 11 11 11 10 10 10 10 10 11 11 11 11 11 11
10 9 9 9 9 10 10 10 10 10 10 10 10 10 11 10 10 10 10 10 10 10 9 9 9 9 9 10 10 10 10 10 10 10 10 10 10 11 11 11 11 11 11 11 11 11 11 11 11 11 11 11 11 11 11 10 10 10 10 11 11 11 11
9 8 8 9 9 9 10 10 10 10 10 10 10 10 11 11 10 10 10 10 10 10 10 9 9 10 10 10 10 10 10 10 10 10 10 10 10 10 10 11 11 11 11 11 11 11 11 11 11 11 11 11 11 11 11 11 11 11 11 11 11 11 11
8 8 8 9 9 9 9 10 10 10 10 10 10 10 10 10 10 10 10 10 10 10 10 10 10 10 10 10 10 10 10 10 10 10 10 10 10 9 10 10 11 11 11 11 11 10 11 11 11 11 11 11 11 11 11 11 11 11 11 11 11 11 11
7 8 8 8 9 9 9 9 10 10 10 10 10 10 10 10 10 10 10 10 10 10 10 10 10 10 10 10 10 10 10 10 10 10 10 10 10 10 9 10 10 10 11 11 11 11 10 10 11 11 11 11 11 11 11 11 11 11 11 11 11 11 11
7 8 8 8 8 9 9 9 9 9 10 10 9 9 9 10 10 9 9 9 9 9 10 10 10 10 10 10 9 9 10 9 9 10 10 10 10 10 10 10 10 10 10 10 11 11 11 10 10 11 11 11 11 11 11 11 12 12 12 11 11 11 11
7 8 8 8 8 8 8 9 9 9 9 10 10 9 9 10 9 9 9 9 9 9 10 10 10 10 10 10 10 9 9 9 10 10 10 10 11 10 10 10 11 10 10 10 10 10 11 10 10 10 11 11 11 11 11 11 11 11 11 11 11 11 11
8 8 8 8 8 8 8 8 8 8 9 9 9 9 9 10 9 9 9 9 10 10 10 10 10 10 10 10 9 9 9 9 10 10 10 10 10 10 11 11 11 11 10 10 10 10 10 10 10 10 10 11 11 11 12 12 11 11 11 11 11 11 11
8 8 8 8 9 9 9 8 8 8 8 8 8 9 9 9 9 9 9 9 9 10 10 10 10 10 10 10 10 9 9 10 10 10 10 10 10 10 10 10 10 10 10 10 10 10 10 10 10 10 10 10 10 10 11 11 11 11 11 11 11 11 11
8 7 7 8 8 8 9 9 8 8 8 8 8 9 9 9 9 9 9 9 9 10 10 10 10 10 10 10 10 10 10 10 10 10 10 10 11 10 10 10 10 10 10 10 10 10 10 10 10 10 10 10 10 10 10 10 10 10 10 10 10 11 11
7 7 7 7 7 7 8 8 8 9 8 8 8 8 9 9 9 9 10 10 9 9 9 9 9 10 10 10 10 10 10 10 10 11 11 11 11 11 11 10 10 10 10 10 10 10 10 10 10 10 10 10 10 10 10 9 9 9 9 10 10 10 10
6 6 6 6 7 7 7 7 8 8 8 8 8 8 9 9 8 9 9 9 9 8 8 8 8 9 9 9 10 10 10 10 10 10 10 10 11 11 10 10 10 10 10 10 10 10 10 10 10 10 10 10 10 10 10 9 9 9 9 10 10 10 10
5 6 6 6 6 6 7 7 7 7 7 8 8 8 8 8 8 8 8 8 8 8 8 8 8 8 8 9 9 9 9 9 9 10 10 10 10 10 10 10 10 10 10 10 10 10 10 10 10 10 10 10 10 10 10 10 10 10 10 10 10 11 11
5 6 6 6 6 6 7 7 7 7 7 7 7 8 8 8 8 8 8 8 8 8 8 8 8 8 8 8 8 8 9 9 9 9 9 9 9 9 9 10 10 10 10 10 10 10 10 9 9 9 9 9 10 10 10 10 10 11 11 10 10 10 10
6 6 6 5 6 6 6 6 7 7 6 6 7 7 7 7 7 8 8 8 8 8 8 8 8 8 8 8 8 8 8 8 8 8 8 8 9 9 9 9 9 10 10 10 10 9 9 9 9 9 9 9 9 9 10 10 10 10 10 10 10 10 10
6 6 5 5 6 6 6 6 6 6 6 7 7 7 7 7 7 7 8 8 8 8 8 8 8 8 8 8 8 8 8 8 8 8 9 9 9 9 9 9 9 9 9 9 9 9 9 9 9 9 9 9 9 9 9 10 10 10 10 10 9 10 10
5 5 5 5 5 6 6 6 6 6 6 7 7 7 7 7 7 7 7 8 8 8 8 8 8 8 8 8 8 8 8 8 9 9 9 9 9 9 9 9 9 9 9 9 9 9 9 9 9 9 9 9 9 9 9 10 10 10 10 9 9 10 10
5 4 4 5 5 5 5 6 6 6 6 7 7 7 7 7 7 7 7 8 8 8 8 8 8 8 8 8 8 8 8 8 8 9 9 9 9 9 9 9 9 9 9 9 9 9 9 9 9 9 9 9 9 9 10 10 10 10 10 10 10 10 10
5 4 4 5 5 5 5 5 5 6 6 6 6 7 7 7 7 7 7 7 7 8 8 8 8 8 8 8 8 8 8 8 8 9 9 9 9 9 9 9 9 9 9 9 9 9 9 9 9 9 9 9 9 9 9 10 10 10 10 10 10 10 10
4 4 4 4 5 5 5 5 5 6 6 6 6 6 6 7 7 7 7 7 7 8 8 8 8 8 8 8 8 8 8 9 9 9 9 9 9 9 9 9 9 9 9 9 9 9 9 9 9 9 9 9 9 9 9 9 9 9 9 9 10 10 10
4 4 4 4 4 5 5 5 5 6 6 6 6 6 7 7 7 7 7 7 7 8 8 8 8 8 8 8 8 8 8 9 9 9 9 9 9 9 9 9 9 9 9 10 10 10 10 9 10 10 10 9 9 9 9 9 9 9 9 9 10 10 10
4 4 4 4 4 5 5 5 5 5 6 6 6 6 7 7 7 7 7 7 8 8 8 8 8 8 8 8 9 9 9 9 9 9 9 9 9 9 9 9 9 10 10 10 10 10 10 10 10 10 10 10 10 9 9 9 9 9 9 9 9 9 10
4 4 4 4 4 4 4 5 5 5 5 5 6 6 6 6 7 7 7 7 8 8 8 8 8 8 8 8 8 9 9 9 9 9 9 9 9 9 9 9 9 10 10 10 10 10 10 10 10 10 10 10 10 10 10 10 10 9 9 9 9 9 9
4 4 4 4 4 4 4 4 4 4 5 5 5 5 5 6 6 6 7 7 7 7 8 8 8 8 8 8 8 8 9 9 9 9 9 9 9 9 9 9 9 9 9 9 10 10 10 10 10 10 10 10 11 11 11 10 10 10 9 9 9 9 9
3 3 4 4 4 4 4 4 4 4 4 4 4 5 5 5 5 6 6 6 6 7 7 7 8 8 8 8 8 8 8 8 8 9 9 9 9 9 9 9 9 9 9 9 9 9 9 10 10 10 10 10 11 11 11 11 10 10 10 10 9 9 9
3 3 3 3 3 3 3 3 4 4 4 4 4 4 4 4 5 5 5 5 6 6 6 7 7 7 7 7 7 8 8 8 8 8 8 8 9 9 9 9 9 9 9 9 9 9 9 9 9 9 9 10 10 10 10 11 11 11 10 10 10 10 9
3 3 3 3 3 3 3 3 3 3 3 3 4 4 4 4 4 4 5 5 5 5 6 6 6 6 7 7 7 7 7 7 8 8 8 8 8 8 9 9 9 9 9 9 9 9 9 9 9 9 9 9 9 10 10 10 11 11 10 10 10 10 10